OneWeb SL0061

operational
NORAD ID: 45428 Int'l Des: 2020-020 Owner: ONEWEB Country: UK Constellation: oneweb
LEOCIRCULARPOLARONEWEB_TYPE

About OneWeb SL0061

Description loading...

Live Position

Loading 3D Globe...

Upcoming Passes

Altitude History

Altitude vs Time

uPlot chart will show altitude changes over time

Two-Line Element Set

1 45428U 20020E 26034.49665969 .00000250 00000-0 66913-3 0 9991
2 45428 87.8824 47.6520 0001786 91.2064 268.9268 13.11413278285108
Epoch: Feb 3, 2026 • Age: 14 hours

Current Status

Altitude 1247.8 km
Velocity 7.23 km/s
Sub-Earth Point -85.36°S, 145.64°W
Launch Date Mar 21, 2020
Age 5.8 years
Type internet

Technical Details

Classification Payload
Mass 148.00 kg
Dry Mass 140.00 kg
Total Mass 148.00 kg
Length 1.30 m
Diameter 1.00 m
Span 5.00 m
Shape Trapezoid+2 pan
Manufacturer ONEWUS
Bus Type ARROW
Phase Status In Orbit
Owner/State ONEWEB/UK

Large Constellations

Loading constellations...